Voltar ao catálogo

STARLINK-6181

AtivoComunicaçõesVLEO
NORAD 56888·PAYLOAD·🇺🇸 United States

Lançado Jun 12, 2023 de Cape Canaveral Space Force Station

Loading…

Próximas Passagens (próximas 24 horas)

TLE

AtualizadoSource: CelesTrak SupGP

Época: Sep 15, 2026, 01:34 UTC

1 56888C 23083N   26258.06576389  .00044584  00000+0  16149-2 0  2583
2 56888  43.0029  99.2881 0001736 279.1469 344.5236 15.27555052    12

Acompanhe STARLINK-6181 em tempo real com AllMySat

Download on the App Store